Simultaneous Nadir Overpasses (SNOs) Predictions

Prediction of SNOs over PacNW region [( 10.00, 139.50) to ( 22.70, 165.60)] between AQUA and NPP Satellites:

Table of predicted SNOs over PacNW region for the next 30.0 days since TLE Epoch: 2/4/2023
Index Date (AQUA) Time (AQUA) AQUA Lat,Lon Date (NPP) Time (NPP) NPP Lat,Lon Distance(km) Time Diff (sec)
1 02/08/2023 02:33:19 22.70, 164.36 02/08/2023 02:31:51 22.65, 160.06 440.79 88
2 02/08/2023 04:11:15 19.45, 140.41 02/08/2023 04:12:08 18.43, 135.73 505.60 53
3 02/10/2023 16:10:58 10.02, 144.90 02/10/2023 16:07:28 8.99, 141.22 419.58 210
4 02/18/2023 15:14:38 19.09, 160.46 02/18/2023 15:13:39 19.87, 156.49 425.12 59
5 03/01/2023 02:40:03 22.65, 162.86 03/01/2023 02:37:57 21.84, 158.75 432.77 126
6 03/01/2023 04:16:51 15.24, 139.86 03/01/2023 04:17:17 14.22, 135.21 513.15 26
7 03/03/2023 16:17:36 10.03, 143.42 03/03/2023 16:14:07 7.82, 139.44 501.40 209
